Weather History for Albion, NE

Change the Weather History Date:

Monday, February 4, 2013

  Actual Average (KOFK) Record (KOFK)
Temperature  
Mean Temperature 32 °F 24 °F  
Max Temperature 40 °F 34 °F 66 °F (2005)
Min Temperature 25 °F 14 °F -27 °F (1905)
Degree Days  
Heating Degree Days 32 41  
Month to date heating degree days 164  
Since 1 July heating degree days 4186  
Cooling Degree Days 0 0  
Month to date cooling degree days 0  
Year to date cooling degree days 0  
Moisture  
Dew Point 24 °F    
Average Humidity 77    
Maximum Humidity 90    
Minimum Humidity 56    
Precipitation  
Precipitation 0.00 in 0.03 in 0.71 in (1986)
Month to date precipitation 0.10  
Year to date precipitation 0.69  
Snow  
Snow 0.00 in 0.20 in - ()
Month to date snowfall 0.9  
Since 1 July snowfall 18.2  
Snow Depth -    
Sea Level Pressure  
Sea Level Pressure 29.90 in    
Wind  
Wind Speed 9 mph (NNW)    
Max Wind Speed 18 mph    
Max Gust Speed 25 mph    
Visibility 10 miles    
Events      
T = Trace of Precipitation, MM = Missing Value Source: NWS Daily Summary

Daily Weather History Graph

Daily Weather History Graph

Search for Another Location

Airport:

Trip Planner

Search our weather history database for the weather conditions in past years. The results will help you decide how hot, cold, wet, or windy it might be!

Date:

Astronomy

Feb. 04, 2013 Rise Set
Actual Time 7:40 AM CST 5:51 PM CST
Civil Twilight 7:11 AM CST 6:21 PM CST
Nautical Twilight 6:38 AM CST 6:54 PM CST
Astronomical Twilight 6:06 AM CST 7:26 PM CST
Moon 2:19 AM CST (2/4) 12:15 PM CST (2/4)
Length of Visible Light 11h 09m
Length of Day
10h 11m
Last Quarter, 37% of the Moon is Illuminated
Feb 4
Last Quarter
Feb 10
New
Feb 17
First Quarter
Feb 25
Full
Mar 4
Last Quarter

Hourly Weather History & Observations

Time (CST) Temp. Windchill Dew Point Humidity Pressure Visibility Wind Dir Wind Speed Gust Speed Precip Events Conditions
12:15 AM 37.4 °F 32.1 °F 24.6 °F 60% 29.79 in 10.0 mi NW 6.9 mph - N/A   Clear
12:35 AM 39.4 °F 33.2 °F 26.1 °F 59% 29.79 in 10.0 mi NW 9.2 mph - N/A   Clear
12:55 AM 40.6 °F 33.8 °F 25.9 °F 56% 29.79 in 10.0 mi NW 11.5 mph - N/A   Clear
1:15 AM 39.0 °F 30.6 °F 25.7 °F 59% 29.80 in 10.0 mi NNW 15.0 mph - N/A   Clear
1:35 AM 38.5 °F 29.6 °F 26.6 °F 62% 29.81 in 10.0 mi NNW 16.1 mph - N/A   Scattered Clouds
1:55 AM 38.7 °F 30.1 °F 27.5 °F 64% 29.81 in 10.0 mi NNW 15.0 mph - N/A   Scattered Clouds
2:15 AM 37.4 °F 30.8 °F 27.9 °F 68% 29.82 in 10.0 mi NNW 9.2 mph - N/A   Clear
2:35 AM 36.0 °F 27.5 °F 28.4 °F 74% 29.84 in 10.0 mi North 12.7 mph - N/A   Clear
2:55 AM 34.7 °F 25.5 °F 28.4 °F 78% 29.86 in 10.0 mi North 13.8 mph - N/A   Clear
3:15 AM 33.4 °F 24.8 °F 27.9 °F 80% 29.86 in 10.0 mi North 11.5 mph - N/A   Clear
4:55 AM 29.3 °F 17.0 °F 26.2 °F 88% 29.90 in 10.0 mi North 18.4 mph 23.0 mph N/A   Overcast
5:15 AM 28.9 °F 18.2 °F 25.7 °F 88% 29.91 in 10.0 mi NNW 13.8 mph 25.3 mph N/A   Overcast
5:35 AM 28.2 °F 18.3 °F 25.3 °F 89% 29.92 in 10.0 mi North 11.5 mph 17.3 mph N/A   Overcast
5:55 AM 27.7 °F 16.1 °F 24.8 °F 89% 29.93 in 10.0 mi North 15.0 mph 23.0 mph N/A   Overcast
6:15 AM 27.0 °F 15.6 °F 23.9 °F 88% 29.94 in 10.0 mi North 13.8 mph 18.4 mph N/A   Overcast
6:35 AM 26.6 °F 15.2 °F 23.9 °F 90% 29.94 in 10.0 mi NNW 13.8 mph 18.4 mph N/A   Overcast
6:55 AM 26.4 °F 14.5 °F 23.0 °F 87% 29.95 in 10.0 mi North 15.0 mph - N/A   Overcast
7:15 AM 26.2 °F 15.2 °F 22.5 °F 86% 29.96 in 10.0 mi North 12.7 mph 19.6 mph N/A   Overcast
7:35 AM 25.7 °F 14.0 °F 21.7 °F 85% 29.95 in 10.0 mi North 13.8 mph - N/A   Overcast
7:55 AM 25.7 °F 14.6 °F 21.7 °F 85% 29.96 in 10.0 mi North 12.7 mph 18.4 mph N/A   Overcast
8:15 AM 25.7 °F 15.1 °F 21.9 °F 86% 29.96 in 10.0 mi North 11.5 mph 17.3 mph N/A   Overcast
8:35 AM 25.9 °F 17.4 °F 21.9 °F 85% 29.97 in 10.0 mi North 8.1 mph - N/A   Overcast
8:55 AM 25.7 °F 14.6 °F 21.6 °F 84% 29.98 in 10.0 mi North 12.7 mph - N/A   Overcast
9:15 AM 25.7 °F 15.7 °F 21.2 °F 83% 29.99 in 10.0 mi North 10.4 mph - N/A   Overcast
9:35 AM 26.1 °F 16.2 °F 21.4 °F 82% 29.99 in 10.0 mi North 10.4 mph - N/A   Overcast
9:55 AM 25.7 °F 17.1 °F 21.2 °F 83% 29.99 in 10.0 mi North 8.1 mph - N/A   Overcast
10:15 AM 26.2 °F 17.1 °F 21.2 °F 81% 29.99 in 10.0 mi NNE 9.2 mph - N/A   Overcast
10:35 AM 25.9 °F 18.2 °F 21.2 °F 82% 29.99 in 10.0 mi NNE 6.9 mph - N/A   Overcast
10:55 AM 26.2 °F 17.8 °F 21.2 °F 81% 30.00 in 10.0 mi North 8.1 mph - N/A   Overcast
11:15 AM 26.6 °F 20.0 °F 21.4 °F 81% 29.99 in 10.0 mi NNE 5.8 mph - N/A   Overcast
11:35 AM 26.6 °F 20.0 °F 21.2 °F 80% 29.99 in 10.0 mi North 5.8 mph - N/A   Overcast
11:55 AM 26.8 °F 20.2 °F 21.4 °F 80% 29.99 in 10.0 mi North 5.8 mph - N/A   Overcast
12:15 PM 26.8 °F 21.4 °F 21.6 °F 81% 29.98 in 10.0 mi NNW 4.6 mph - N/A   Overcast
12:35 PM 27.5 °F - 21.7 °F 79% 29.98 in 10.0 mi Calm Calm - N/A   Overcast
12:55 PM 27.9 °F - 21.7 °F 78% 29.97 in 10.0 mi Calm Calm - N/A   Overcast
1:15 PM 28.2 °F - 21.9 °F 77% 29.96 in 10.0 mi Calm Calm - N/A   Overcast
1:35 PM 29.3 °F - 22.1 °F 75% 29.95 in 10.0 mi Calm Calm - N/A   Overcast
1:55 PM 29.5 °F 25.9 °F 22.5 °F 75% 29.95 in 10.0 mi West 3.5 mph - N/A   Overcast
2:15 PM 30.7 °F - 23.0 °F 73% 29.94 in 10.0 mi Calm Calm - N/A   Overcast
2:35 PM 31.5 °F - 23.0 °F 71% 29.92 in 10.0 mi Calm Calm - N/A   Overcast
2:55 PM 32.0 °F 26.4 °F 23.4 °F 70% 29.91 in 10.0 mi SSW 5.8 mph - N/A   Scattered Clouds
3:15 PM 32.7 °F 28.3 °F 23.5 °F 69% 29.91 in 10.0 mi SSW 4.6 mph - N/A   Clear
3:35 PM 33.6 °F 28.4 °F 23.7 °F 67% 29.90 in 10.0 mi SSW 5.8 mph - N/A   Clear
3:55 PM 34.5 °F 29.4 °F 23.9 °F 65% 29.89 in 10.0 mi SSE 5.8 mph - N/A   Scattered Clouds
4:15 PM 34.7 °F 28.1 °F 23.7 °F 64% 29.89 in 10.0 mi South 8.1 mph - N/A   Clear
4:35 PM 33.3 °F 28.9 °F 23.4 °F 67% 29.88 in 10.0 mi South 4.6 mph - N/A   Clear
4:55 PM 33.8 °F 27.7 °F 23.4 °F 66% 29.88 in 10.0 mi South 6.9 mph - N/A   Scattered Clouds
5:15 PM 33.1 °F 26.9 °F 23.4 °F 67% 29.88 in 10.0 mi South 6.9 mph - N/A   Overcast
5:35 PM 32.5 °F 27.1 °F 23.4 °F 69% 29.89 in 10.0 mi South 5.8 mph - N/A   Overcast
6:15 PM 31.5 °F 24.2 °F 23.0 °F 71% 29.87 in 10.0 mi SSE 8.1 mph - N/A   Mostly Cloudy
6:35 PM 30.6 °F 23.1 °F 22.6 °F 72% 29.87 in 10.0 mi SSE 8.1 mph - N/A   Mostly Cloudy
6:55 PM 30.7 °F 22.6 °F 23.0 °F 73% 29.86 in 10.0 mi SSE 9.2 mph - N/A   Scattered Clouds
7:15 PM 31.1 °F 24.5 °F 23.0 °F 72% 29.86 in 10.0 mi SSE 6.9 mph - N/A   Scattered Clouds
7:35 PM 30.7 °F 23.3 °F 23.2 °F 74% 29.85 in 10.0 mi SSE 8.1 mph - N/A   Clear
7:55 PM 30.7 °F 22.0 °F 23.5 °F 75% 29.84 in 10.0 mi South 10.4 mph - N/A   Clear
8:15 PM 30.7 °F 23.3 °F 23.9 °F 76% 29.83 in 10.0 mi South 8.1 mph - N/A   Scattered Clouds
8:35 PM 30.9 °F 23.5 °F 24.8 °F 78% 29.83 in 10.0 mi South 8.1 mph - N/A   Mostly Cloudy
8:55 PM 31.1 °F 25.4 °F 25.5 °F 80% 29.83 in 10.0 mi South 5.8 mph - N/A   Overcast
9:15 PM 31.1 °F 25.4 °F 25.9 °F 81% 29.83 in 10.0 mi South 5.8 mph - N/A   Overcast
9:35 PM 31.1 °F 26.4 °F 26.1 °F 82% 29.83 in 10.0 mi South 4.6 mph - N/A   Overcast
9:55 PM 31.1 °F 25.4 °F 26.4 °F 83% 29.86 in 10.0 mi NNW 5.8 mph - N/A   Overcast
10:15 PM 31.5 °F 26.8 °F 26.4 °F 82% 29.84 in 10.0 mi SW 4.6 mph - N/A   Overcast
10:35 PM 31.8 °F 25.4 °F 26.6 °F 81% 29.83 in 10.0 mi SSW 6.9 mph - N/A   Overcast
10:55 PM 32.0 °F 28.7 °F 27.0 °F 82% 29.84 in 10.0 mi South 3.5 mph - N/A   Overcast
11:15 PM 31.8 °F - 27.0 °F 82% 29.83 in 10.0 mi Calm Calm - N/A   Overcast
11:35 PM 32.0 °F - 27.0 °F 82% 29.83 in 10.0 mi Calm Calm - N/A   Overcast
11:55 PM 31.8 °F 27.3 °F 27.1 °F 83% 29.82 in 10.0 mi South 4.6 mph - N/A   Overcast